ProjectID,Date,Electric Generation,Electric Utility Import,Facility Electric Load
,YYYY-MM-DD,kW,kW,kW
547,2017-08-01,0.0,,0.0
547,2017-08-02,0.0,,0.0
547,2017-08-03,0.0,,0.0
547,2017-08-04,0.0,,0.0
547,2017-08-05,0.0,,0.0
547,2017-08-06,0.0,,0.0
547,2017-08-07,0.0,,0.0
547,2017-08-08,0.0,,0.0
547,2017-08-09,0.0,,0.0
547,2017-08-10,0.0,,0.0
547,2017-08-11,0.0,,0.0
547,2017-08-12,0.0,,0.0
547,2017-08-13,0.0,,0.0
547,2017-08-14,0.0,,0.0
547,2017-08-15,0.0,,0.0
547,2017-08-16,0.0,,0.0
547,2017-08-17,0.0,,0.0
547,2017-08-18,0.0,,0.0
547,2017-08-19,0.0,,0.0
547,2017-08-20,63.45275,,63.45275
547,2017-08-21,49.32945833333333,,49.32945833333333
547,2017-08-22,50.724041666666665,,50.724041666666665
547,2017-08-23,29.7145,,29.7145
547,2017-08-24,60.05079166666667,,60.05079166666667
547,2017-08-25,36.1815,,36.1815
547,2017-08-26,58.949083333333334,,58.949083333333334
547,2017-08-27,50.73766666666666,,50.73766666666666
547,2017-08-28,41.188375,,41.188375
547,2017-08-29,8.403875000000001,,8.403875000000001
547,2017-08-30,62.01916666666667,,62.01916666666667
547,2017-08-31,50.53595833333333,,50.53595833333333
547,2017-09-01,61.29554166666667,,61.29554166666667
547,2017-09-02,25.667666666666666,,25.667666666666666
547,2017-09-03,23.37275,,23.37275
547,2017-09-04,59.627916666666664,,59.627916666666664
547,2017-09-05,55.48775,,55.48775
547,2017-09-06,14.860333333333335,,14.860333333333335
547,2017-09-07,49.19816666666667,,49.19816666666667
547,2017-09-08,55.305125000000004,,55.305125000000004
547,2017-09-09,51.63454166666667,,51.63454166666667
547,2017-09-10,52.64304166666667,,52.64304166666667
547,2017-09-11,54.13195833333333,,54.13195833333333
547,2017-09-12,47.10433333333333,,47.10433333333333
547,2017-09-13,43.2035,,43.2035
547,2017-09-14,33.01079166666667,,33.01079166666667
547,2017-09-15,52.71770833333333,,52.71770833333333
547,2017-09-16,40.16620833333334,,40.16620833333334
547,2017-09-17,47.42604166666666,,47.42604166666666
547,2017-09-18,16.006375000000002,,16.006375000000002
547,2017-09-19,22.350125000000002,,22.350125000000002
547,2017-09-20,34.49975,,34.49975
547,2017-09-21,30.984125000000002,,30.984125000000002
547,2017-09-22,49.08495833333333,,49.08495833333333
547,2017-09-23,52.274125,,52.274125
547,2017-09-24,48.42720833333333,,48.42720833333333
547,2017-09-25,47.467000000000006,,47.467000000000006
547,2017-09-26,38.02620833333334,,38.02620833333334
547,2017-09-27,31.301708333333334,,31.301708333333334
547,2017-09-28,50.70529166666666,,50.70529166666666
547,2017-09-29,35.94629166666667,,35.94629166666667
547,2017-09-30,25.861958333333334,,25.861958333333334
547,2017-10-01,50.37383333333333,,50.37383333333333
547,2017-10-02,49.47054166666666,,49.47054166666666
547,2017-10-03,48.60154166666666,,48.60154166666666
547,2017-10-04,47.946,,47.946
547,2017-10-05,32.14183333333333,,32.14183333333333
547,2017-10-06,38.42166666666667,,38.42166666666667
547,2017-10-07,37.219541666666665,,37.219541666666665
547,2017-10-08,8.973333333333334,,8.973333333333334
547,2017-10-09,5.992541666666667,,5.992541666666667
547,2017-10-10,41.382625,,41.382625
547,2017-10-11,22.58075,,22.58075
547,2017-10-12,29.340625,,29.340625
547,2017-10-13,24.235083333333336,,24.235083333333336
547,2017-10-14,21.838958333333334,,21.838958333333334
547,2017-10-15,15.845583333333332,,15.845583333333332
547,2017-10-16,20.1405,,20.1405
547,2017-10-17,43.635875,,43.635875
547,2017-10-18,39.812999999999995,,39.812999999999995
547,2017-10-19,41.40645833333333,,41.40645833333333
547,2017-10-20,40.33508333333334,,40.33508333333334
547,2017-10-21,36.4825,,36.4825
547,2017-10-22,37.89704166666667,,37.89704166666667
547,2017-10-23,27.128416666666666,,27.128416666666666
547,2017-10-24,13.658999999999999,,13.658999999999999
547,2017-10-25,13.4065,,13.4065
547,2017-10-26,8.676083333333333,,8.676083333333333
547,2017-10-27,37.46729166666667,,37.46729166666667
547,2017-10-28,36.543749999999996,,36.543749999999996
547,2017-10-29,2.6060833333333333,,2.6060833333333333
547,2017-10-30,29.098791666666667,,29.098791666666667
547,2017-10-31,32.85975,,32.85975
547,2017-11-01,15.861333333333334,,15.861333333333334
547,2017-11-02,27.034499999999998,,27.034499999999998
547,2017-11-03,27.911458333333332,,27.911458333333332
547,2017-11-04,28.781625000000002,,28.781625000000002
547,2017-11-05,5.329125,,5.329125
547,2017-11-06,6.69275,,6.69275
547,2017-11-07,10.120458333333334,,10.120458333333334
547,2017-11-08,19.924208333333333,,19.924208333333333
547,2017-11-09,31.961333333333332,,31.961333333333332
547,2017-11-10,30.760375,,30.760375
547,2017-11-11,33.79425,,33.79425
547,2017-11-12,25.13191666666667,,25.13191666666667
547,2017-11-13,8.501958333333333,,8.501958333333333
547,2017-11-14,23.901708333333332,,23.901708333333332
547,2017-11-15,30.607791666666667,,30.607791666666667
547,2017-11-16,17.213541666666668,,17.213541666666668
547,2017-11-17,31.459666666666667,,31.459666666666667
547,2017-11-18,7.876625,,7.876625
547,2017-11-19,23.518916666666666,,23.518916666666666
547,2017-11-20,22.509125,,22.509125
547,2017-11-21,27.569333333333333,,27.569333333333333
547,2017-11-22,12.475875,,12.475875
547,2017-11-23,29.174166666666665,,29.174166666666665
547,2017-11-24,27.286749999999998,,27.286749999999998
547,2017-11-25,26.500708333333336,,26.500708333333336
547,2017-11-26,24.543041666666667,,24.543041666666667
547,2017-11-27,24.064458333333334,,24.064458333333334
547,2017-11-28,24.881249999999998,,24.881249999999998
547,2017-11-29,23.65533333333333,,23.65533333333333
547,2017-11-30,15.987375,,15.987375
547,2017-12-01,25.232083333333335,,25.232083333333335
547,2017-12-02,22.7715,,22.7715
547,2017-12-03,5.737333333333333,,5.737333333333333
547,2017-12-04,22.895916666666665,,22.895916666666665
547,2017-12-05,7.166333333333333,,7.166333333333333
547,2017-12-06,14.443041666666666,,14.443041666666666
547,2017-12-07,25.110666666666663,,25.110666666666663
547,2017-12-08,11.455041666666666,,11.455041666666666
547,2017-12-09,0.7307916666666667,,0.7307916666666667
547,2017-12-10,0.48666666666666664,,0.48666666666666664
547,2017-12-11,4.446916666666667,,4.446916666666667
547,2017-12-12,8.48175,,8.48175
547,2017-12-13,19.343416666666666,,19.343416666666666
547,2017-12-14,2.3236250000000003,,2.3236250000000003
547,2017-12-15,3.731125,,3.731125
547,2017-12-16,1.5872916666666665,,1.5872916666666665
547,2017-12-17,12.072291666666667,,12.072291666666667
547,2017-12-18,14.762083333333335,,14.762083333333335
547,2017-12-19,16.227833333333333,,16.227833333333333
547,2017-12-20,13.740208333333333,,13.740208333333333
547,2017-12-21,22.28025,,22.28025
547,2017-12-22,3.636416666666667,,3.636416666666667
547,2017-12-23,1.5289583333333334,,1.5289583333333334
547,2017-12-24,13.450166666666666,,13.450166666666666
547,2017-12-25,22.865583333333333,,22.865583333333333
547,2017-12-26,20.567416666666666,,20.567416666666666
547,2017-12-27,23.560333333333332,,23.560333333333332
547,2017-12-28,25.789083333333334,,25.789083333333334
547,2017-12-29,21.4245,,21.4245
547,2017-12-30,1.5995416666666669,,1.5995416666666669
547,2017-12-31,13.365166666666667,,13.365166666666667
547,2018-01-01,22.563833333333335,,22.563833333333335
547,2018-01-02,24.004625,,24.004625
547,2018-01-03,23.488916666666668,,23.488916666666668
547,2018-01-04,2.213208333333333,,2.213208333333333
547,2018-01-05,26.569374999999997,,26.569374999999997
547,2018-01-06,26.914375000000003,,26.914375000000003
547,2018-01-07,26.485666666666663,,26.485666666666663
547,2018-01-08,13.075583333333334,,13.075583333333334
547,2018-01-09,25.06475,,25.06475
547,2018-01-10,25.624375,,25.624375
547,2018-01-11,11.494208333333333,,11.494208333333333
547,2018-01-12,2.6328333333333336,,2.6328333333333336
547,2018-01-13,26.63775,,26.63775
547,2018-01-14,30.518541666666668,,30.518541666666668
547,2018-01-15,27.752291666666665,,27.752291666666665
547,2018-01-16,14.096333333333334,,14.096333333333334
547,2018-01-17,6.086958333333333,,6.086958333333333
547,2018-01-18,29.626,,29.626
547,2018-01-19,20.626541666666665,,20.626541666666665
547,2018-01-20,29.980791666666665,,29.980791666666665
547,2018-01-21,27.649416666666667,,27.649416666666667
547,2018-01-22,13.861375,,13.861375
547,2018-01-23,7.978166666666667,,7.978166666666667
547,2018-01-24,27.732791666666667,,27.732791666666667
547,2018-01-25,33.44858333333333,,33.44858333333333
547,2018-01-26,31.627916666666668,,31.627916666666668
547,2018-01-27,26.592416666666665,,26.592416666666665
547,2018-01-28,6.009083333333333,,6.009083333333333
547,2018-01-29,16.991583333333335,,16.991583333333335
547,2018-01-30,5.0765416666666665,,5.0765416666666665
547,2018-01-31,35.12441666666667,,35.12441666666667
547,2018-02-01,15.935833333333333,,15.935833333333333
547,2018-02-02,25.483791666666665,,25.483791666666665
547,2018-02-03,33.427125,,33.427125
547,2018-02-04,12.351291666666667,,12.351291666666667
547,2018-02-05,38.172875,,38.172875
547,2018-02-06,12.725625,,12.725625
547,2018-02-07,1.8515416666666666,,1.8515416666666666
547,2018-02-08,39.35870833333333,,39.35870833333333
547,2018-02-09,21.882791666666666,,21.882791666666666
547,2018-02-10,14.674458333333334,,14.674458333333334
547,2018-02-11,4.422583333333333,,4.422583333333333
547,2018-02-12,16.4245,,16.4245
547,2018-02-13,40.9515,,40.9515
547,2018-02-14,31.53216666666667,,31.53216666666667
547,2018-02-15,15.496083333333333,,15.496083333333333
547,2018-02-16,11.046583333333333,,11.046583333333333
547,2018-02-17,32.154625,,32.154625
547,2018-02-18,15.113624999999999,,15.113624999999999
547,2018-02-19,22.663375000000002,,22.663375000000002
547,2018-02-20,29.517666666666667,,29.517666666666667
547,2018-02-21,33.428374999999996,,33.428374999999996
547,2018-02-22,5.118166666666666,,5.118166666666666
547,2018-02-23,6.639291666666666,,6.639291666666666
547,2018-02-24,14.194375,,14.194375
547,2018-02-25,5.616166666666667,,5.616166666666667
547,2018-02-26,17.513083333333334,,17.513083333333334
547,2018-02-27,47.09370833333333,,47.09370833333333
547,2018-02-28,44.50008333333333,,44.50008333333333
547,2018-03-01,21.422583333333336,,21.422583333333336
547,2018-03-02,3.8525416666666668,,3.8525416666666668
547,2018-03-03,37.24775,,37.24775
547,2018-03-04,20.655291666666667,,20.655291666666667
547,2018-03-05,25.717791666666667,,25.717791666666667
547,2018-03-06,44.935833333333335,,44.935833333333335
547,2018-03-07,3.110708333333333,,3.110708333333333
547,2018-03-08,9.045916666666667,,9.045916666666667
547,2018-03-09,33.82783333333334,,33.82783333333334
547,2018-03-10,32.45079166666667,,32.45079166666667
547,2018-03-11,48.41733333333334,,48.41733333333334
547,2018-03-12,0.9026666666666667,,0.9026666666666667
547,2018-03-13,0.0,,0.0
547,2018-03-14,0.0,,0.0
547,2018-03-15,0.0,,0.0
547,2018-03-16,0.0,,0.0
547,2018-03-17,0.0,,0.0
547,2018-03-18,0.0,,0.0
547,2018-03-19,0.0,,0.0
547,2018-03-20,0.0,,0.0
547,2018-03-21,0.0,,0.0
547,2018-03-22,0.0,,0.0
547,2018-03-23,0.0,,0.0
547,2018-03-24,0.0,,0.0
547,2018-03-25,0.0,,0.0
547,2018-03-26,0.0,,0.0
547,2018-03-27,0.0,,0.0
547,2018-03-28,0.0,,0.0
547,2018-03-29,0.0,,0.0
547,2018-03-30,0.0,,0.0
547,2018-03-31,0.0,,0.0
547,2018-04-01,0.0,,0.0
547,2018-04-02,0.0,,0.0
547,2018-04-03,0.0,,0.0
547,2018-04-04,0.0,,0.0
547,2018-04-05,0.0,,0.0
547,2018-04-06,0.0,,0.0
547,2018-04-07,0.0,,0.0
547,2018-04-08,0.0,,0.0
547,2018-04-09,0.0,,0.0
547,2018-04-10,30.990583333333333,,30.990583333333333
547,2018-04-11,55.256208333333326,,55.256208333333326
547,2018-04-12,43.625791666666665,,43.625791666666665
547,2018-04-13,54.198,,54.198
547,2018-04-14,57.40633333333333,,57.40633333333333
547,2018-04-15,13.400458333333333,,13.400458333333333
547,2018-04-16,31.690833333333334,,31.690833333333334
547,2018-04-17,32.49220833333333,,32.49220833333333
547,2018-04-18,59.66216666666667,,59.66216666666667
547,2018-04-19,18.613916666666665,,18.613916666666665
547,2018-04-20,67.550875,,67.550875
547,2018-04-21,64.11666666666666,,64.11666666666666
547,2018-04-22,68.61070833333333,,68.61070833333333
547,2018-04-23,69.446,,69.446
547,2018-04-24,57.72470833333333,,57.72470833333333
547,2018-04-25,12.533291666666665,,12.533291666666665
547,2018-04-26,67.92770833333334,,67.92770833333334
547,2018-04-27,12.139375000000001,,12.139375000000001
547,2018-04-28,56.61783333333333,,56.61783333333333
547,2018-04-29,52.483000000000004,,52.483000000000004
547,2018-04-30,39.37233333333334,,39.37233333333334
547,2018-05-01,70.65245833333334,,70.65245833333334
547,2018-05-02,68.623625,,68.623625
547,2018-05-03,62.80404166666667,,62.80404166666667
547,2018-05-04,36.78516666666667,,36.78516666666667
547,2018-05-05,48.33533333333333,,48.33533333333333
547,2018-05-06,18.241583333333335,,18.241583333333335
547,2018-05-07,56.16729166666667,,56.16729166666667
547,2018-05-08,70.94012500000001,,70.94012500000001
547,2018-05-09,69.35616666666667,,69.35616666666667
547,2018-05-10,36.835375,,36.835375
547,2018-05-11,70.017625,,70.017625
547,2018-05-12,18.707708333333333,,18.707708333333333
547,2018-05-13,12.522874999999999,,12.522874999999999
547,2018-05-14,48.555375,,48.555375
547,2018-05-15,57.885375,,57.885375
547,2018-05-16,11.871166666666667,,11.871166666666667
547,2018-05-17,23.913416666666667,,23.913416666666667
547,2018-05-18,27.086624999999998,,27.086624999999998
547,2018-05-19,11.378916666666667,,11.378916666666667
547,2018-05-20,56.607416666666666,,56.607416666666666
547,2018-05-21,75.83858333333333,,75.83858333333333
547,2018-05-22,20.809916666666666,,20.809916666666666
547,2018-05-23,58.6615,,58.6615
547,2018-05-24,74.24091666666666,,74.24091666666666
547,2018-05-25,70.85945833333334,,70.85945833333334
547,2018-05-26,64.45049999999999,,64.45049999999999
547,2018-05-27,11.175166666666668,,11.175166666666668
547,2018-05-28,34.07875,,34.07875
547,2018-05-29,64.007875,,64.007875
547,2018-05-30,46.739625,,46.739625
547,2018-05-31,15.768875,,15.768875
547,2018-06-01,46.845124999999996,,46.845124999999996
547,2018-06-02,54.723375000000004,,54.723375000000004
547,2018-06-03,31.34766666666667,,31.34766666666667
547,2018-06-04,57.509125000000004,,57.509125000000004
547,2018-06-05,49.33529166666667,,49.33529166666667
547,2018-06-06,39.53,,39.53
547,2018-06-07,59.07745833333333,,59.07745833333333
547,2018-06-08,62.039791666666666,,62.039791666666666
547,2018-06-09,62.609375,,62.609375
547,2018-06-10,20.075,,20.075
547,2018-06-11,62.519,,62.519
547,2018-06-12,78.43041666666666,,78.43041666666666
547,2018-06-13,25.778000000000002,,25.778000000000002
547,2018-06-14,75.51829166666667,,75.51829166666667
547,2018-06-15,44.4655,,44.4655
547,2018-06-16,75.11075,,75.11075
547,2018-06-17,70.39320833333333,,70.39320833333333
547,2018-06-18,66.61591666666666,,66.61591666666666
547,2018-06-19,67.05020833333333,,67.05020833333333
547,2018-06-20,62.776,,62.776
547,2018-06-21,63.30283333333333,,63.30283333333333
547,2018-06-22,47.34504166666667,,47.34504166666667
547,2018-06-23,25.112624999999998,,25.112624999999998
547,2018-06-24,50.16216666666667,,50.16216666666667
547,2018-06-25,67.3685,,67.3685
547,2018-06-26,76.0235,,76.0235
547,2018-06-27,22.641375,,22.641375
547,2018-06-28,43.51766666666666,,43.51766666666666
547,2018-06-29,67.75258333333333,,67.75258333333333
547,2018-06-30,70.81254166666666,,70.81254166666666
547,2018-07-01,59.701875,,59.701875
547,2018-07-02,69.76629166666667,,69.76629166666667
547,2018-07-03,45.068999999999996,,45.068999999999996
547,2018-07-04,50.33991666666666,,50.33991666666666
547,2018-07-05,66.59058333333333,,66.59058333333333
547,2018-07-06,22.593125,,22.593125
547,2018-07-07,78.05275,,78.05275
547,2018-07-08,74.80666666666666,,74.80666666666666
547,2018-07-09,72.81654166666667,,72.81654166666667
547,2018-07-10,70.22204166666667,,70.22204166666667
547,2018-07-11,59.63941666666667,,59.63941666666667
547,2018-07-12,62.637375,,62.637375
547,2018-07-13,67.593125,,67.593125
547,2018-07-14,67.489625,,67.489625
547,2018-07-15,36.33595833333333,,36.33595833333333
547,2018-07-16,63.15633333333333,,63.15633333333333
547,2018-07-17,47.059374999999996,,47.059374999999996
547,2018-07-18,67.54816666666666,,67.54816666666666
547,2018-07-19,72.63616666666667,,72.63616666666667
547,2018-07-20,72.09575,,72.09575
547,2018-07-21,52.85295833333333,,52.85295833333333
547,2018-07-22,44.13095833333333,,44.13095833333333
547,2018-07-23,41.59775,,41.59775
547,2018-07-24,67.58525,,67.58525
547,2018-07-25,26.246750000000002,,26.246750000000002
547,2018-07-26,51.37829166666666,,51.37829166666666
547,2018-07-27,52.92904166666667,,52.92904166666667
547,2018-07-28,60.687000000000005,,60.687000000000005
547,2018-07-29,56.587375,,56.587375
547,2018-07-30,29.549583333333334,,29.549583333333334
547,2018-07-31,60.47408333333333,,60.47408333333333
547,2018-08-01,52.80616666666666,,52.80616666666666
547,2018-08-02,57.083499999999994,,57.083499999999994
547,2018-08-03,40.65375,,40.65375
547,2018-08-04,40.431125,,40.431125
547,2018-08-05,62.92845833333333,,62.92845833333333
547,2018-08-06,60.501374999999996,,60.501374999999996
547,2018-08-07,57.86204166666667,,57.86204166666667
547,2018-08-08,62.341125,,62.341125
547,2018-08-09,54.14458333333334,,54.14458333333334
547,2018-08-10,54.79045833333333,,54.79045833333333
547,2018-08-11,18.862,,18.862
547,2018-08-12,44.118541666666665,,44.118541666666665
547,2018-08-13,15.419333333333334,,15.419333333333334
547,2018-08-14,51.474041666666665,,51.474041666666665
547,2018-08-15,60.914125000000006,,60.914125000000006
547,2018-08-16,54.50266666666667,,54.50266666666667
547,2018-08-17,47.06129166666667,,47.06129166666667
547,2018-08-18,35.48704166666666,,35.48704166666666
547,2018-08-19,14.457125,,14.457125
547,2018-08-20,21.708458333333336,,21.708458333333336
547,2018-08-21,55.696625000000004,,55.696625000000004
547,2018-08-22,46.173249999999996,,46.173249999999996
547,2018-08-23,62.846375,,62.846375
547,2018-08-24,61.04958333333334,,61.04958333333334
547,2018-08-25,60.11070833333333,,60.11070833333333
547,2018-08-26,56.121125,,56.121125
547,2018-08-27,48.53004166666667,,48.53004166666667
547,2018-08-28,55.09525,,55.09525
547,2018-08-29,54.895875,,54.895875
547,2018-08-30,44.82954166666667,,44.82954166666667
547,2018-08-31,18.356833333333334,,18.356833333333334
547,2018-09-01,43.92058333333333,,43.92058333333333
547,2018-09-02,49.834666666666664,,49.834666666666664
547,2018-09-03,54.34775,,54.34775
547,2018-09-04,44.72408333333333,,44.72408333333333
547,2018-09-05,53.458375,,53.458375
547,2018-09-06,48.69670833333333,,48.69670833333333
547,2018-09-07,14.856875,,14.856875
547,2018-09-08,18.4675,,18.4675
547,2018-09-09,8.91675,,8.91675
547,2018-09-10,8.885458333333334,,8.885458333333334
547,2018-09-11,18.916708333333332,,18.916708333333332
547,2018-09-12,12.854166666666666,,12.854166666666666
547,2018-09-13,14.317791666666666,,14.317791666666666
547,2018-09-14,26.049625000000002,,26.049625000000002
547,2018-09-15,41.75275,,41.75275
547,2018-09-16,52.582125,,52.582125
547,2018-09-17,26.730583333333332,,26.730583333333332
547,2018-09-18,11.158916666666668,,11.158916666666668
547,2018-09-19,42.76829166666667,,42.76829166666667
547,2018-09-20,25.653666666666666,,25.653666666666666
547,2018-09-21,14.839916666666667,,14.839916666666667
547,2018-09-22,40.668,,40.668
547,2018-09-23,9.05475,,9.05475
547,2018-09-24,36.184916666666666,,36.184916666666666
547,2018-09-25,5.376416666666667,,5.376416666666667
547,2018-09-26,38.513041666666666,,38.513041666666666
547,2018-09-27,44.51179166666666,,44.51179166666666
547,2018-09-28,13.463625,,13.463625
547,2018-09-29,47.418083333333335,,47.418083333333335
547,2018-09-30,47.7605,,47.7605
547,2018-10-01,21.979208333333332,,21.979208333333332
547,2018-10-02,32.347791666666666,,32.347791666666666
547,2018-10-03,44.48445833333333,,44.48445833333333
547,2018-10-04,32.72270833333334,,32.72270833333334
547,2018-10-05,37.0495,,37.0495
547,2018-10-06,7.209791666666667,,7.209791666666667
547,2018-10-07,18.102875,,18.102875
547,2018-10-08,4.56,,4.56
547,2018-10-09,17.56775,,17.56775
547,2018-10-10,27.178458333333335,,27.178458333333335
547,2018-10-11,11.690208333333333,,11.690208333333333
547,2018-10-12,43.540375000000004,,43.540375000000004
547,2018-10-13,19.420666666666666,,19.420666666666666
547,2018-10-14,22.520875,,22.520875
547,2018-10-15,6.099041666666667,,6.099041666666667
547,2018-10-16,34.91283333333333,,34.91283333333333
547,2018-10-17,40.46483333333333,,40.46483333333333
547,2018-10-18,45.196666666666665,,45.196666666666665
547,2018-10-19,37.12375,,37.12375
547,2018-10-20,23.588541666666668,,23.588541666666668
547,2018-10-21,34.269625,,34.269625
547,2018-10-22,23.720041666666663,,23.720041666666663
547,2018-10-23,36.313875,,36.313875
547,2018-10-24,36.72925,,36.72925
547,2018-10-25,39.72270833333334,,39.72270833333334
547,2018-10-26,21.609416666666664,,21.609416666666664
547,2018-10-27,5.5612916666666665,,5.5612916666666665
547,2018-10-28,18.958375,,18.958375
547,2018-10-29,17.372458333333334,,17.372458333333334
547,2018-10-30,37.889375,,37.889375
547,2018-10-31,32.63945833333333,,32.63945833333333
547,2018-11-01,29.906333333333333,,29.906333333333333
547,2018-11-02,8.285208333333333,,8.285208333333333
547,2018-11-03,23.69541666666667,,23.69541666666667
547,2018-11-04,35.41279166666667,,35.41279166666667
547,2018-11-05,5.584666666666667,,5.584666666666667
547,2018-11-06,3.0234583333333336,,3.0234583333333336
547,2018-11-07,30.500041666666664,,30.500041666666664
547,2018-11-08,30.514333333333337,,30.514333333333337
547,2018-11-09,7.585999999999999,,7.585999999999999
547,2018-11-10,28.194083333333335,,28.194083333333335
547,2018-11-11,33.200541666666666,,33.200541666666666
547,2018-11-12,23.071708333333333,,23.071708333333333
547,2018-11-13,7.393249999999999,,7.393249999999999
547,2018-11-14,31.514375,,31.514375
547,2018-11-15,3.7214166666666664,,3.7214166666666664
547,2018-11-16,22.80995833333333,,22.80995833333333
547,2018-11-17,19.928416666666667,,19.928416666666667
547,2018-11-18,10.470083333333333,,10.470083333333333
547,2018-11-19,19.14725,,19.14725
547,2018-11-20,13.122458333333334,,13.122458333333334
547,2018-11-21,17.132875000000002,,17.132875000000002
547,2018-11-22,28.84120833333333,,28.84120833333333
547,2018-11-23,29.256541666666667,,29.256541666666667
547,2018-11-24,8.011750000000001,,8.011750000000001
547,2018-11-25,20.772166666666667,,20.772166666666667
547,2018-11-26,4.339916666666666,,4.339916666666666
547,2018-11-27,13.379,,13.379
547,2018-11-28,12.07425,,12.07425
547,2018-11-29,20.908916666666666,,20.908916666666666
547,2018-11-30,7.31775,,7.31775
547,2018-12-01,21.872416666666666,,21.872416666666666
547,2018-12-02,3.8502916666666667,,3.8502916666666667
547,2018-12-03,16.884208333333333,,16.884208333333333
547,2018-12-04,26.531375,,26.531375
547,2018-12-05,17.145875,,17.145875
547,2018-12-06,19.44275,,19.44275
547,2018-12-07,15.608083333333333,,15.608083333333333
547,2018-12-08,24.622416666666666,,24.622416666666666
547,2018-12-09,13.696666666666667,,13.696666666666667
547,2018-12-10,24.303416666666667,,24.303416666666667
547,2018-12-11,17.932416666666665,,17.932416666666665
547,2018-12-12,13.882833333333332,,13.882833333333332
547,2018-12-13,2.3099166666666666,,2.3099166666666666
547,2018-12-14,8.041666666666666,,8.041666666666666
547,2018-12-15,3.3711249999999997,,3.3711249999999997
547,2018-12-16,1.9454166666666666,,1.9454166666666666
547,2018-12-17,15.019541666666667,,15.019541666666667
547,2018-12-18,24.381541666666667,,24.381541666666667
547,2018-12-19,22.05079166666667,,22.05079166666667
547,2018-12-20,10.22925,,10.22925
547,2018-12-21,2.3671666666666664,,2.3671666666666664